Content
SEND FEEDBACK

Daily
Averages
Monthly
Summary
Bosnia and Herzegovina

ILIDZA, BOSNIA AND HERZEGOVINA


Home > Europe > Bosnia and Herzegovina
Elevation: 1677 feet     Latitude: 43 49N     Longitude: 018 19E

WEATHER
 
SELECT A DAY
Number of Records: 182,137;   Date Range: 2/20/97 - 10/21/14
 
SHARE

PRINT THIS DATA

[ ← Previous Day ]
WEATHER ALMANAC - APRIL 26, 2014
[ Next Day → ]
[ °C ]   °F
Weather ElementAverageHighLow
Temperature55 °F64.4 °F (2:00 pm)50 °F (2:00 am)
Dewpoint53.2 °F57.2 °F (12:30 pm)50 °F (2:00 am)
Humidity94.1 %100 % (1:00 am)68 % (2:00 pm)
Barometer29.84 in29.86 in (1:00 am)29.80 in (3:00 pm)
Wind Speed1.6 mph4.6 mph (1:30 pm)
Weather ElementAverage
Visibility4.3 mi
Wind DirectionNNE (16.3 °)

Weather ElementTotal
Precipitation---
Heating Degree Days7.8 (Base 65)
Growing Degree Days7.2 (Base 50)
Averaged from 41 records on April 26, 2014
WEATHER CONDITIONS BREAKOUT
WIND DIRECTION BREAKOUT
WEATHER BY HOUR - APRIL 26, 2014
[ °C ]   °F
Local TimeTemperatureDewpointHumidityBarometerVisibilityWind DirectionWind SpeedGust SpeedPrecipitationEventsConditions
1:00 AM51.8 °F51.8 °F100 %29.86 in3.7 miVariable1.2 mphMostly Cloudy
2:00 AM50.0 °F50.0 °F100 %29.86 in3.1 miVariable1.2 mphMostly Cloudy
3:00 AM50.0 °F50.0 °F100 %29.86 in3.1 miVariable1.2 mphMostly Cloudy
4:00 AM50.0 °F50.0 °F100 %29.86 in3.1 miVariable2.3 mphMostly Cloudy
5:00 AM50.0 °F50.0 °F100 %29.86 in3.7 miVariable2.3 mphScattered Clouds
5:30 AM50.0 °F50.0 °F100 %29.83 in5.0 miVariable1.2 mphScattered Clouds
6:00 AM50.0 °F50.0 °F100 %29.83 in5.0 miVariable1.2 mphScattered Clouds
6:30 AM50.0 °F50.0 °F100 %29.83 in5.0 miVariable1.2 mphMostly Cloudy
7:00 AM50.0 °F50.0 °F100 %29.86 in5.0 miVariable1.2 mphRainLight Rain
7:30 AM51.8 °F51.8 °F100 %29.86 in1.9 miVariable1.2 mphRainLight Rain
8:00 AM51.8 °F51.8 °F100 %29.86 in1.9 miCalmRainLight Rain
8:30 AM53.6 °F53.6 °F100 %29.86 in1.9 miVariable1.2 mphRainLight Rain
9:00 AM53.6 °F53.6 °F100 %29.86 in1.9 miVariable1.2 mphMostly Cloudy
9:30 AM55.4 °F55.4 °F100 %29.86 in2.5 miVariable1.2 mphMostly Cloudy
10:00 AM55.4 °F53.6 °F94 %29.86 in5.0 miVariable1.2 mphRainLight Rain
10:30 AM57.2 °F53.6 °F88 %29.86 in5.0 miVariable1.2 mphMostly Cloudy
11:00 AM57.2 °F53.6 °F88 %29.86 in4.3 miVariable1.2 mphRainLight Rain
11:30 AM55.4 °F53.6 °F94 %29.86 in3.7 miVariable1.2 mphRainLight Rain
12:00 PM55.4 °F55.4 °F100 %29.86 in5.0 miVariable1.2 mphRainLight Rain
12:30 PM59.0 °F57.2 °F94 %29.86 in6.2 miVariable1.2 mphMostly Cloudy
1:00 PM60.8 °F55.4 °F82 %29.83 in6.2 miVariable3.5 mphMostly Cloudy
1:30 PM62.6 °F53.6 °F72 %29.83 in6.2 miVariable4.6 mphMostly Cloudy
2:00 PM64.4 °F53.6 °F68 %29.83 in6.2 miVariable2.3 mphMostly Cloudy
2:30 PM62.6 °F51.8 °F68 %29.83 in6.2 miVariable2.3 mphMostly Cloudy
3:00 PM59.0 °F51.8 °F77 %29.80 in6.2 miSW (220°)4.6 mphRainLight Rain
3:30 PM59.0 °F55.4 °F88 %29.80 in6.2 miWSW (250°)3.5 mphRainLight Rain
4:00 PM60.8 °F55.4 °F82 %29.80 in6.2 miVariable3.5 mphRainLight Rain
4:30 PM60.8 °F53.6 °F77 %29.80 in6.2 miVariable2.3 mphRainLight Rain
5:00 PM57.2 °F55.4 °F94 %29.83 in2.5 miSSW (200°)3.5 mphRainHeavy Rain
5:30 PM55.4 °F55.4 °F100 %29.83 in3.7 miVariable1.2 mphRainRain
6:00 PM55.4 °F55.4 °F100 %29.83 in3.7 miVariable1.2 mphRainRain
6:30 PM55.4 °F55.4 °F100 %29.83 in3.7 miVariable1.2 mphRainRain
7:00 PM55.4 °F53.6 °F94 %29.83 in3.7 miVariable1.2 mphRainRain
7:30 PM53.6 °F53.6 °F100 %29.83 in4.3 miVariable1.2 mphRainRain
8:00 PM55.4 °F55.4 °F100 %29.83 in4.3 miVariable1.2 mphRainLight Rain
8:30 PM53.6 °F53.6 °F100 %29.83 in4.3 miCalmRainLight Rain
9:00 PM53.6 °F53.6 °F100 %29.86 in4.3 miVariable1.2 mphRainLight Rain
9:30 PM53.6 °F53.6 °F100 %29.86 in4.3 miCalmRainLight Rain
10:00 PM53.6 °F53.6 °F100 %29.86 in4.3 miCalmRainLight Rain
10:30 PM53.6 °F53.6 °F100 %29.86 in4.3 miVariable2.3 mphRainLight Rain
11:00 PM51.8 °F51.8 °F100 %29.86 in4.3 miVariable1.2 mphRainLight Rain
Hourly data recorded from LQSA, located miles away from Ilidza, Bosnia and Herzegovina







STORIES FROM OUR PARTNERS